EW8337 Weather Reports


time (UTC)temp
F
wind
direction
speed
knots
gust
knots
rain 1hr
in
rain 24hr
in
rain mn
in
humidity
%
barometer
mb
20260507205152 63 314 4.3 10.4 0.00 0.01 0.00 26 1016.8
20260507204652 63 308 1.7 13.9 0.00 0.01 0.00 27 1016.8
20260507204152 63 338 1.7 13.9 0.00 0.01 0.00 28 1016.8
20260507203652 62 342 1.7 10.4 0.00 0.01 0.00 27 1016.9
20260507203152 62 297 7.8 15.6 0.00 0.01 0.00 26 1016.9
20260507202652 62 345 7.8 12.2 0.00 0.01 0.00 27 1017.0
20260507202152 62 316 6.1 13.0 0.00 0.01 0.00 27 1017.2
20260507201152 61 279 5.2 14.8 0.00 0.01 0.00 28 1017.2
20260507200652 61 303 9.6 17.4 0.00 0.01 0.00 27 1017.3
20260507200153 61 343 7.0 15.6 0.00 0.01 0.00 28 1017.3
20260507195652 61 307 7.0 14.8 0.00 0.01 0.00 26 1017.5
20260507195152 61 293 7.8 17.4 0.00 0.01 0.00 26 1017.5
20260507194652 62 288 5.2 17.4 0.00 0.01 0.00 26 1017.5
20260507193152 62 29 1.7 8.7 0.00 0.01 0.00 26 1017.6
20260507192652 62 309 4.3 8.7 0.00 0.01 0.00 26 1017.7
20260507192152 62 339 0.9 10.4 0.00 0.01 0.00 25 1017.6
20260507191153 62 305 0.9 2.6 0.00 0.01 0.00 24 1017.7
20260507190152 63 337 0.0 2.6 0.00 0.01 0.00 23 1017.8
20260507185652 62 303 0.9 2.6 0.00 0.01 0.00 25 1017.9
20260507185152 62 26 0.0 1.7 0.00 0.01 0.00 23 1017.9
20260507184652 61 346 0.9 2.6 0.00 0.01 0.00 24 1017.9
20260507184153 62 2 0.0 0.9 0.00 0.01 0.00 23 1017.9
20260507183653 61 147 0.0 1.7 0.00 0.01 0.00 24 1018.0
20260507182652 61 19 0.0 0.9 0.00 0.01 0.00 22 1018.0
20260507182153 61 122 0.0 0.9 0.00 0.01 0.00 23 1017.9
20260507181652 60 288 0.0 0.9 0.00 0.01 0.00 23 1017.9
20260507180652 60 53 0.0 0.9 0.00 0.01 0.00 24 1018.2
20260507180152 59 346 0.0 1.7 0.00 0.01 0.00 22 1018.3
20260507175652 60 322 0.9 5.2 0.00 0.01 0.00 23 1018.3
20260507175152 60 240 0.9 2.6 0.00 0.01 0.00 22 1018.4
20260507174653 59 213 1.7 4.3 0.00 0.01 0.00 22 1018.4
20260507174152 59 265 0.9 4.3 0.00 0.01 0.00 23 1018.5
20260507173652 59 287 0.9 2.6 0.00 0.01 0.00 22 1018.6
20260507173152 59 209 1.7 4.3 0.00 0.01 0.00 23 1018.6
20260507172653 59 276 2.6 7.0 0.00 0.01 0.00 23 1018.8
20260507172153 59 233 1.7 6.1 0.00 0.01 0.00 21 1018.7
20260507171652 59 288 4.3 7.0 0.00 0.01 0.00 21 1018.8
20260507171153 58 272 0.9 5.2 0.00 0.01 0.00 23 1018.8
20260507170653 58 266 3.5 6.1 0.00 0.01 0.00 22 1018.8
20260507170153 58 274 3.5 7.0 0.00 0.01 0.00 24 1018.9
20260507165652 58 317 1.7 7.0 0.00 0.01 0.00 23 1019.0
20260507165152 57 319 2.6 10.4 0.00 0.01 0.00 23 1019.0
20260507164652 57 297 4.3 7.8 0.00 0.01 0.00 22 1019.0
20260507164153 57 265 0.9 6.1 0.00 0.01 0.00 24 1019.0
20260507163152 56 350 3.5 6.1 0.00 0.01 0.00 24 1019.0
20260507162652 56 302 2.6 7.0 0.00 0.01 0.00 25 1019.0
20260507162152 56 291 4.3 10.4 0.00 0.01 0.00 25 1019.0
20260507161653 55 302 4.3 10.4 0.00 0.01 0.00 25 1019.0
20260507160652 55 334 4.3 8.7 0.00 0.01 0.00 27 1019.2
20260507160152 55 302 3.5 8.7 0.00 0.01 0.00 28 1019.2
20260507155652 54 299 4.3 8.7 0.00 0.01 0.00 31 1019.2
20260507155153 54 316 6.1 10.4 0.00 0.01 0.00 30 1019.3
20260507154653 54 319 5.2 13.0 0.00 0.01 0.00 31 1019.3
20260507154153 54 304 5.2 10.4 0.00 0.01 0.00 31 1019.2
20260507153653 53 306 7.0 10.4 0.00 0.01 0.00 31 1019.2
20260507153153 53 315 5.2 10.4 0.00 0.01 0.00 33 1019.3
20260507152653 52 306 7.8 13.0 0.00 0.01 0.00 33 1019.3
20260507152153 52 333 5.2 10.4 0.00 0.01 0.00 34 1019.3
20260507151653 52 310 5.2 10.4 0.00 0.01 0.00 34 1019.3
20260507150652 51 322 4.3 10.4 0.00 0.01 0.00 36 1019.3
20260507150153 51 302 5.2 10.4 0.00 0.01 0.00 37 1019.3
20260507145153 50 300 6.1 10.4 0.00 0.01 0.00 37 1019.3
20260507144653 49 316 4.3 10.4 0.00 0.01 0.00 38 1019.3
20260507144153 49 324 5.2 11.3 0.00 0.01 0.00 39 1019.3
20260507143653 49 299 7.0 13.9 0.00 0.01 0.00 38 1019.4
20260507143152 48 300 7.8 15.6 0.00 0.01 0.00 39 1019.3
20260507141653 47 329 5.2 8.7 0.00 0.01 0.00 39 1019.3
20260507141153 47 291 4.3 10.4 0.00 0.01 0.00 39 1019.3
20260507140653 46 336 4.3 7.0 0.00 0.01 0.00 40 1019.3
20260507140153 46 318 4.3 7.8 0.00 0.01 0.00 40 1019.3
20260507135653 45 324 3.5 7.8 0.00 0.01 0.00 41 1019.3
20260507134653 44 298 3.5 7.0 0.00 0.01 0.00 42 1019.3
20260507134153 44 311 2.6 7.8 0.00 0.01 0.00 43 1019.2
20260507133153 43 317 3.5 7.8 0.00 0.01 0.00 44 1019.1
20260507132653 42 301 2.6 5.2 0.00 0.01 0.00 45 1019.1
20260507132153 42 303 3.5 8.7 0.00 0.01 0.00 45 1019.0
20260507131653 42 310 4.3 7.8 0.00 0.01 0.00 45 1019.0
20260507131153 41 326 2.6 5.2 0.00 0.01 0.00 46 1018.9
20260507130652 41 319 2.6 7.0 0.00 0.01 0.00 46 1018.9
20260507130152 41 309 2.6 5.2 0.00 0.01 0.00 46 1019.0
20260507125153 40 321 2.6 5.2 0.00 0.01 0.00 47 1018.9
20260507124653 39 302 3.5 6.1 0.00 0.01 0.00 48 1018.8
20260507123653 38 305 0.9 4.3 0.00 0.01 0.00 53 1018.8
20260507123153 34 0 0.0 0.0 0.00 0.01 0.00 55 1018.7
20260507122653 34 0 0.0 0.0 0.00 0.01 0.00 55 1018.7
20260507122153 34 0 0.0 0.0 0.00 0.01 0.00 55 1018.7
20260507121153 34 0 0.0 0.0 0.00 0.01 0.00 55 1018.7
20260507120653 34 0 0.0 0.0 0.00 0.01 0.00 55 1018.7
20260507120153 34 0 0.0 0.0 0.00 0.01 0.00 55 1018.6
20260507115653 34 0 0.0 0.0 0.00 0.01 0.00 55 1018.6
20260507115153 34 0 0.0 0.0 0.00 0.01 0.00 55 1018.6
20260507114653 34 0 0.0 0.0 0.00 0.01 0.00 55 1018.7
20260507114153 34 0 0.0 0.0 0.00 0.01 0.00 55 1018.7
20260507113653 34 0 0.0 0.0 0.00 0.01 0.00 55 1018.7
20260507113153 34 0 0.0 0.0 0.00 0.01 0.00 55 1018.8
20260507112652 34 0 0.0 0.0 0.00 0.01 0.00 55 1018.7
20260507112153 34 0 0.0 0.0 0.00 0.01 0.00 55 1018.8
20260507111652 34 0 0.0 0.0 0.00 0.01 0.00 55 1018.8
20260507111153 34 0 0.0 0.0 0.00 0.01 0.00 55 1018.7
20260507110153 34 0 0.0 0.0 0.00 0.01 0.00 55 1018.8
20260507105653 34 0 0.0 0.0 0.00 0.01 0.00 55 1018.8
20260507105153 34 0 0.0 0.0 0.00 0.01 0.00 55 1018.9
20260507104653 34 0 0.0 0.0 0.00 0.01 0.00 55 1018.8
20260507103653 34 0 0.0 0.0 0.00 0.01 0.00 55 1018.7
20260507103153 34 0 0.0 0.0 0.00 0.01 0.00 55 1018.7
20260507102653 34 0 0.0 0.0 0.00 0.01 0.00 55 1018.8
20260507101653 34 0 0.0 0.0 0.00 0.01 0.00 55 1019.0
20260507101153 34 1 0.0 1.7 0.00 0.01 0.00 55 1019.0
20260507100654 34 300 1.7 1.7 0.00 0.01 0.00 55 1019.0
20260507100154 34 300 1.7 4.3 0.00 0.01 0.00 55 1019.1
20260507095653 35 302 2.6 5.2 0.00 0.01 0.00 55 1019.1
20260507094654 34 299 1.7 5.2 0.00 0.01 0.00 58 1019.0
20260507094154 34 305 2.6 5.2 0.00 0.01 0.00 59 1019.0
20260507093653 34 299 2.6 6.1 0.00 0.01 0.00 60 1019.1
20260507093154 33 324 0.9 1.7 0.00 0.01 0.00 61 1019.0
20260507092653 33 314 0.0 0.9 0.00 0.01 0.00 62 1019.0
20260507092154 33 348 0.0 1.7 0.00 0.01 0.00 62 1019.0
20260507091653 33 336 0.9 2.6 0.00 0.01 0.00 63 1019.0
20260507091154 33 341 0.9 5.2 0.00 0.01 0.00 64 1019.0
20260507090653 33 340 0.9 4.3 0.00 0.01 0.00 65 1019.1
20260507090154 33 341 0.0 2.6 0.00 0.01 0.00 66 1019.3
20260507085653 32 342 0.9 2.6 0.00 0.01 0.00 68 1019.2
20260507085153 32 332 0.0 2.6 0.00 0.01 0.00 71 1019.3
20260507084653 32 346 0.9 4.3 0.00 0.01 0.00 72 1019.2
20260507084153 32 336 0.0 2.6 0.00 0.01 0.00 73 1019.2
20260507083653 31 334 0.0 0.9 0.00 0.01 0.00 75 1019.2
20260507083154 31 333 0.0 1.7 0.00 0.01 0.00 75 1019.2
20260507082654 31 304 0.9 4.3 0.00 0.01 0.00 78 1019.4
20260507082154 30 300 0.9 2.6 0.00 0.01 0.00 83 1019.4
20260507081653 29 299 0.0 2.6 0.00 0.01 0.00 90 1019.6
20260507081154 27 310 0.0 0.9 0.00 0.01 0.00 93 1019.5
20260507080654 26 26 0.0 0.0 0.00 0.01 0.00 93 1019.6
20260507080153 26 26 0.0 0.0 0.00 0.01 0.00 93 1019.7
20260507075653 27 26 0.0 0.0 0.00 0.01 0.00 93 1019.7
20260507075153 27 25 0.0 0.0 0.00 0.01 0.00 93 1019.8
20260507074653 27 25 0.0 0.0 0.00 0.01 0.00 93 1019.9
20260507074154 27 25 0.0 0.0 0.00 0.01 0.00 93 1019.9
20260507073653 27 26 0.0 0.0 0.00 0.01 0.00 93 1020.0
20260507072654 27 25 0.0 0.0 0.00 0.01 0.00 93 1020.0
20260507072153 27 25 0.0 0.0 0.00 0.01 0.00 93 1020.1
20260507071654 27 25 0.0 0.0 0.00 0.01 0.00 93 1020.1
20260507071154 27 25 0.0 0.0 0.00 0.01 0.00 93 1020.1
20260507070654 27 25 0.0 0.0 0.00 0.01 0.00 93 1020.1
20260507070153 28 25 0.0 0.0 0.00 0.01 0.00 93 1020.2
20260507065654 28 26 0.0 0.0 0.00 0.01 0.00 93 1020.2
20260507065153 28 26 0.0 0.0 0.00 0.01 0.00 94 1020.1
20260507064654 28 25 0.0 0.0 0.00 0.01 0.00 94 1020.2
20260507064153 28 26 0.0 0.0 0.00 0.01 0.00 94 1020.3
20260507063654 28 25 0.0 0.0 0.00 0.01 0.00 93 1020.3
20260507063153 28 26 0.0 0.0 0.00 0.01 0.00 94 1020.3
20260507062653 28 25 0.0 0.0 0.00 0.01 0.00 94 1020.2
20260507062153 28 25 0.0 0.0 0.00 0.01 0.00 94 1020.2
20260507061653 28 25 0.0 0.0 0.00 0.01 0.00 94 1020.1
20260507061154 28 25 0.0 0.0 0.00 0.01 0.00 94 1020.2
20260507060654 28 26 0.0 0.0 0.00 0.01 0.00 93 1020.1
20260507060154 28 25 0.0 0.0 0.00 0.01 0.00 93 1020.2
20260507055653 28 26 0.0 0.0 0.00 0.01 0.01 93 1020.2
20260507055153 28 25 0.0 0.0 0.00 0.01 0.01 93 1020.1
20260507054654 28 25 0.0 0.0 0.00 0.01 0.01 93 1020.1
20260507054153 29 26 0.0 0.0 0.00 0.01 0.01 93 1020.1
20260507053653 29 25 0.0 0.0 0.00 0.01 0.01 93 1020.1
20260507053154 29 25 0.0 0.0 0.00 0.01 0.01 93 1020.1
20260507052655 29 25 0.0 0.0 0.00 0.01 0.01 93 1020.1
20260507052153 29 25 0.0 0.0 0.00 0.01 0.01 93 1020.0
20260507051154 29 26 0.0 0.0 0.00 0.01 0.01 93 1020.0
20260507050654 29 26 0.0 0.0 0.00 0.01 0.01 93 1020.0
20260507050154 29 26 0.0 0.0 0.00 0.01 0.01 93 1019.9
20260507045654 29 25 0.0 0.0 0.00 0.01 0.01 93 1019.9
20260507045154 29 26 0.0 0.0 0.00 0.01 0.01 92 1020.0
20260507044654 29 129 0.0 0.0 0.00 0.01 0.01 92 1019.9
20260507044154 29 123 0.0 0.0 0.00 0.01 0.01 92 1019.9
20260507043653 30 129 0.0 0.0 0.00 0.01 0.01 92 1019.9
20260507043154 30 120 0.0 0.0 0.00 0.01 0.01 92 1020.0
20260507042654 30 159 0.0 0.0 0.00 0.01 0.01 92 1020.1
20260507042154 30 138 0.0 0.0 0.00 0.01 0.01 92 1020.0
20260507041654 30 125 0.0 0.0 0.00 0.01 0.01 92 1020.0
20260507041154 30 120 0.0 0.0 0.00 0.01 0.01 92 1020.1
20260507040653 30 133 0.0 1.7 0.00 0.01 0.01 92 1020.1
20260507040154 30 132 0.0 0.0 0.00 0.01 0.01 92 1020.0
20260507035654 30 155 0.0 2.6 0.00 0.01 0.01 92 1020.1
20260507035154 31 211 0.0 0.9 0.00 0.01 0.01 92 1020.0
20260507034653 31 131 0.0 1.7 0.00 0.01 0.01 91 1020.0
20260507034154 31 225 0.0 0.0 0.00 0.01 0.01 91 1020.0
20260507033154 31 139 0.0 0.0 0.00 0.01 0.01 89 1019.9
20260507032654 31 130 0.0 0.0 0.00 0.01 0.01 88 1019.9
20260507032154 31 129 0.0 0.0 0.00 0.01 0.01 87 1019.9
20260507031654 31 142 0.0 0.0 0.00 0.01 0.01 87 1019.8
20260507031154 31 135 0.0 0.0 0.00 0.01 0.01 86 1019.8
20260507030654 31 128 0.0 0.0 0.00 0.01 0.01 86 1019.7
20260507025654 31 150 0.0 0.0 0.00 0.01 0.01 84 1019.6
20260507025155 31 131 0.0 0.0 0.00 0.01 0.01 84 1019.6
20260507024154 32 147 0.0 0.0 0.00 0.01 0.01 83 1019.5
20260507023155 32 153 0.0 1.7 0.00 0.01 0.01 82 1019.5
20260507022654 32 179 0.0 0.0 0.00 0.01 0.01 82 1019.5
20260507022154 33 197 0.0 0.9 0.00 0.01 0.01 82 1019.5
20260507021654 33 156 0.0 2.6 0.00 0.01 0.01 81 1019.5
20260507021155 33 165 0.0 2.6 0.00 0.01 0.01 80 1019.4
20260507020154 34 190 0.9 4.3 0.00 0.01 0.01 77 1019.4
20260507015654 34 182 0.9 2.6 0.00 0.01 0.01 76 1019.3
20260507015154 34 205 0.9 5.2 0.00 0.01 0.01 76 1019.3
20260507014654 35 194 0.9 4.3 0.00 0.01 0.01 75 1019.3
20260507014154 35 183 1.7 7.8 0.00 0.01 0.01 74 1019.3
20260507013654 36 226 1.7 4.3 0.00 0.01 0.01 73 1019.3
20260507013155 36 192 0.9 2.6 0.00 0.01 0.01 72 1019.3
20260507012654 36 145 0.9 5.2 0.00 0.01 0.01 72 1019.3
20260507011154 36 145 1.7 6.1 0.00 0.01 0.01 71 1019.3
20260507010654 37 200 0.9 5.2 0.00 0.01 0.01 70 1019.3
20260507010154 38 180 1.7 7.0 0.00 0.01 0.01 68 1019.3
20260507005155 38 136 1.7 7.8 0.00 0.02 0.01 69 1019.1
20260507004654 38 158 1.7 5.2 0.00 0.02 0.01 68 1019.1
20260507004154 37 207 2.6 7.8 0.00 0.02 0.01 69 1019.1
20260507003654 37 186 1.7 5.2 0.00 0.02 0.01 69 1019.1
20260507003154 37 183 0.9 2.6 0.00 0.02 0.01 70 1019.0
20260507002654 37 182 1.7 5.2 0.00 0.02 0.01 69 1019.0
20260507002154 37 204 3.5 7.0 0.00 0.02 0.01 68 1019.0
20260507001654 37 165 0.9 4.3 0.00 0.02 0.01 68 1019.0
20260507001154 37 130 2.6 4.3 0.00 0.02 0.01 67 1019.0
20260507000654 37 166 2.6 5.2 0.00 0.02 0.01 67 1019.0
20260507000155 37 226 0.0 4.3 0.00 0.02 0.01 68 1019.0
20260506235654 37 203 1.7 5.2 0.00 0.02 0.01 67 1019.0
20260506235155 37 154 0.9 7.0 0.00 0.02 0.01 67 1018.9
20260506234654 38 177 1.7 5.2 0.00 0.03 0.01 67 1018.9
20260506234154 38 177 1.7 6.1 0.00 0.03 0.01 65 1018.9
20260506233154 38 216 1.7 5.2 0.00 0.03 0.01 65 1018.9
20260506232655 38 218 1.7 2.6 0.00 0.03 0.01 65 1019.0
20260506231654 37 60 0.0 0.0 0.00 0.04 0.01 67 1019.0
20260506231155 37 68 0.9 4.3 0.00 0.04 0.01 66 1019.0
20260506225654 37 86 1.7 4.3 0.00 0.04 0.01 66 1018.9
20260506225154 38 23 1.7 5.2 0.00 0.04 0.01 64 1018.8
20260506224654 38 0 0.0 0.9 0.00 0.04 0.01 63 1018.8
20260506224155 38 326 0.0 2.6 0.00 0.04 0.01 62 1018.8
20260506223154 37 297 0.0 2.6 0.01 0.05 0.01 63 1018.8
20260506222654 37 331 0.0 0.9 0.01 0.05 0.01 63 1018.9
20260506222154 37 221 0.0 2.6 0.01 0.05 0.01 64 1018.9
20260506221655 37 319 0.0 2.6 0.01 0.05 0.01 65 1018.9
20260506221154 36 57 0.0 2.6 0.01 0.05 0.01 66 1018.9
20260506220654 36 21 0.0 1.7 0.01 0.05 0.01 66 1018.9
20260506220155 36 86 0.0 2.6 0.01 0.05 0.01 66 1018.9
20260506215654 36 106 0.0 2.6 0.01 0.05 0.01 65 1019.0
20260506215154 36 266 0.9 2.6 0.01 0.05 0.01 65 1019.0
20260506214655 36 1 0.9 4.3 0.01 0.05 0.01 67 1019.1
20260506214154 36 23 2.6 7.0 0.01 0.05 0.01 65 1019.1
20260506213654 36 29 2.6 6.1 0.01 0.05 0.01 68 1019.0
20260506213155 36 308 4.3 8.7 0.00 0.05 0.00 65 1019.0
20260506212654 37 300 2.6 6.1 0.00 0.05 0.00 64 1019.0
20260506212154 37 350 2.6 7.0 0.00 0.05 0.00 66 1019.0
20260506211655 36 8 1.7 8.7 0.00 0.05 0.00 69 1019.0
20260506211154 36 5 5.2 11.3 0.00 0.05 0.00 70 1019.0
20260506210655 36 339 2.6 8.7 0.00 0.05 0.00 70 1019.1
20260506210155 36 349 3.5 7.8 0.00 0.05 0.00 71 1019.1
20260506205655 36 23 1.7 6.1 0.00 0.05 0.00 71 1019.1